Temp
11 10 10 10 11 11 11 11 11 11 11 11 11 11 11 11 11 11 11 11 11 11 11 10 10 9 9 10 10 10 10 10
10 10 10 10 10 10 10 10 10 10 10 10 10 10 10 10 10 10 10 10 10 11 10 10 9 9 9 10 10 10 9 10
10 10 10 10 10 10 10 10 10 9 9 9 9 9 9 9 9 9 9 10 10 10 10 10 9 9 9 9 10 9 10 10
10 10 10 10 10 10 10 10 9 9 9 9 9 9 9 9 9 9 9 9 9 10 10 10 10 10 10 9 9 10 10 10
11 11 11 11 11 11 10 10 9 9 9 9 9 9 9 9 9 9 8 8 8 9 9 10 10 9 10 9 9 9 9 10
12 11 11 10 10 10 10 9 10 10 10 9 9 9 9 9 9 9 9 8 8 8 9 9 9 9 9 9 9 9 10 9
12 11 10 10 10 9 9 9 9 9 9 9 9 9 9 8 9 9 9 9 9 9 8 8 9 9 9 9 9 9 9 9
11 11 10 10 10 10 10 10 9 9 9 8 8 8 8 8 8 8 9 9 8 8 9 8 8 8 9 8 8 8 9 9
11 11 11 11 11 10 10 10 10 9 9 8 8 8 8 8 8 8 8 8 8 8 8 8 8 8 9 8 8 8 8 9
12 12 11 11 10 10 9 9 9 9 9 9 9 9 8 8 8 8 8 8 8 8 8 8 8 8 8 8 8 8 8 8
12 12 11 10 10 9 9 9 8 9 9 9 9 9 8 8 8 9 8 8 8 8 7 7 7 7 7 7 8 8 8 8
11 11 10 9 9 9 9 9 8 8 8 8 8 8 8 8 8 8 8 8 8 8 7 7 7 7 7 7 7 7 7 7
11 11 10 10 9 9 8 8 7 7 7 7 7 7 6 6 6 6 6 6 6 6 6 6 6 7 6 7 7 7 7 7
10 10 10 9 9 8 7 7 6 6 5 5 5 5 5 5 5 5 5 5 5 5 5 5 6 6 5 5 5 5 6 7
10 10 9 9 8 7 7 6 6 6 6 5 4 3 3 2 2 2 3 3 4 4 4 4 4 5 5 4 4 5 5 5
10 9 8 8 7 6 6 6 6 5 4 3 2 2 1 1 1 1 1 1 1 1 2 2 2 2 4 4 4 4 4 5
9 8 8 7 6 6 6 5 5 4 3 3 1 0 0 0 0 -0 -1 -1 -1 -1 -0 -0 0 0 1 1 2 3 3 3
8 8 7 6 6 6 5 4 4 3 2 2 0 0 -0 -1 -1 -1 -2 -2 -2 -3 -3 -2 -2 -2 -1 -1 -0 -0 1 2
7 7 6 6 5 5 4 3 3 2 1 0 -0 -1 -1 -1 -2 -2 -2 -3 -3 -3 -3 -3 -3 -3 -3 -2 -2 -2 -1 -1
7 6 6 5 5 5 3 3 2 1 -0 -1 -1 -2 -2 -3 -2 -3 -3 -3 -4 -4 -4 -4 -4 -4 -4 -4 -3 -3 -3 -2
Height
1541 1541 1542 1542 1542 1541 1541 1541 1541 1541 1541 1540 1540 1539 1538 1537 1537 1536 1536 1535 1535 1535 1535 1535 1536 1535 1537 1537 1539 1539 1540 1542
1543 1544 1544 1544 1544 1544 1543 1542 1542 1542 1542 1541 1541 1540 1540 1539 1538 1537 1537 1536 1536 1536 1536 1535 1536 1536 1537 1537 1538 1539 1540 1541
1544 1546 1546 1546 1545 1544 1544 1543 1543 1543 1543 1542 1541 1541 1540 1540 1539 1537 1536 1536 1536 1536 1537 1537 1537 1536 1537 1537 1538 1538 1539 1540
1544 1545 1546 1546 1545 1544 1543 1543 1543 1542 1542 1542 1541 1541 1540 1540 1539 1537 1537 1537 1536 1537 1537 1537 1537 1537 1537 1538 1538 1539 1539 1539
1544 1543 1545 1544 1543 1542 1542 1542 1542 1542 1542 1541 1540 1540 1540 1539 1538 1538 1536 1536 1537 1537 1537 1537 1537 1537 1537 1537 1538 1538 1538 1538
1542 1542 1544 1543 1542 1541 1540 1540 1540 1540 1540 1540 1539 1539 1538 1537 1536 1536 1536 1536 1536 1536 1536 1536 1536 1537 1537 1536 1537 1537 1537 1537
1540 1541 1542 1542 1541 1540 1539 1538 1537 1537 1538 1538 1537 1537 1537 1536 1535 1535 1534 1534 1535 1535 1534 1535 1535 1535 1536 1536 1535 1536 1535 1535
1540 1540 1541 1542 1541 1540 1539 1538 1537 1537 1536 1536 1536 1535 1535 1534 1533 1533 1532 1532 1532 1532 1532 1532 1532 1532 1533 1533 1533 1534 1534 1534
1537 1538 1540 1541 1542 1541 1539 1538 1537 1535 1535 1534 1533 1532 1531 1531 1530 1529 1529 1529 1529 1529 1528 1528 1528 1528 1528 1529 1530 1531 1531 1531
1535 1536 1539 1540 1540 1539 1538 1536 1535 1534 1532 1530 1529 1528 1527 1526 1526 1525 1525 1524 1524 1524 1523 1523 1523 1523 1523 1524 1525 1526 1527 1527
1534 1535 1537 1538 1539 1537 1535 1533 1531 1529 1528 1526 1524 1523 1522 1521 1520 1519 1519 1518 1517 1518 1518 1517 1517 1518 1518 1519 1520 1519 1521 1522
1533 1533 1534 1535 1535 1534 1533 1531 1529 1527 1525 1523 1521 1519 1517 1516 1514 1513 1512 1511 1511 1510 1510 1510 1510 1511 1512 1511 1512 1513 1514 1514
1531 1531 1532 1533 1533 1532 1531 1529 1527 1524 1522 1519 1517 1515 1513 1511 1510 1508 1507 1506 1505 1504 1502 1501 1502 1504 1504 1503 1504 1505 1506 1506
1530 1531 1531 1531 1530 1529 1527 1525 1522 1519 1516 1514 1511 1509 1508 1506 1504 1503 1502 1502 1501 1499 1497 1496 1495 1497 1497 1497 1494 1495 1495 1497
1529 1531 1530 1528 1527 1526 1524 1521 1518 1515 1511 1508 1505 1502 1501 1499 1497 1496 1495 1494 1493 1492 1491 1490 1489 1491 1491 1492 1488 1485 1487 1486
1529 1529 1527 1526 1524 1522 1519 1515 1512 1509 1506 1503 1500 1498 1496 1493 1491 1489 1488 1487 1486 1485 1484 1483 1482 1481 1483 1484 1483 1482 1480 1479
1527 1527 1525 1523 1521 1519 1515 1511 1508 1506 1503 1500 1497 1495 1493 1490 1487 1484 1481 1480 1479 1478 1477 1476 1475 1474 1474 1474 1474 1473 1473 1474
1526 1525 1523 1521 1519 1515 1511 1507 1505 1502 1499 1497 1494 1492 1490 1487 1484 1481 1478 1476 1474 1472 1470 1469 1469 1467 1466 1466 1466 1467 1466 1467
1523 1524 1521 1519 1516 1512 1508 1504 1501 1499 1496 1494 1492 1489 1487 1484 1480 1477 1474 1471 1469 1467 1465 1464 1463 1461 1460 1459 1459 1458 1459 1460
1522 1523 1519 1516 1513 1509 1505 1502 1499 1497 1495 1492 1490 1487 1484 1480 1477 1473 1470 1466 1463 1461 1460 1458 1457 1455 1453 1453 1452 1452 1453 1453
Wind_Speed
8 10 10 10 12 11 11 10 9 7 7 5 5 4 5 4 4 4 3 2 1 2 4 6 10 11 10 10 9 9 9 6
6 8 8 6 8 9 10 10 9 10 8 7 5 5 6 5 4 6 5 4 3 1 4 7 9 11 9 4 5 9 8 5
5 6 8 6 4 5 5 5 5 5 7 8 7 6 6 4 3 4 5 4 2 1 3 6 8 10 12 7 7 7 6 5
3 4 6 8 8 7 6 4 5 6 4 5 8 9 8 7 6 4 3 5 3 1 4 5 7 10 14 11 8 7 8 6
1 4 8 9 10 10 11 8 8 9 9 8 9 11 10 10 7 4 2 2 3 4 4 5 6 5 11 12 10 9 10 10
3 5 8 9 11 12 12 12 11 13 9 12 11 13 12 10 11 8 7 5 6 6 6 8 8 7 6 9 9 12 13 12
1 3 7 8 8 7 11 12 15 16 14 12 14 12 12 10 8 9 11 10 10 11 11 10 10 9 9 11 11 12 13 14
4 3 4 9 10 11 12 8 9 13 14 13 13 14 15 16 15 14 14 14 15 16 16 16 17 16 15 14 14 13 14 16
2 5 5 6 8 7 6 6 8 8 9 11 15 17 19 21 21 20 19 20 20 21 21 21 21 21 22 20 17 19 17 15
2 6 5 4 3 4 6 7 6 8 10 13 16 18 18 21 24 25 25 27 27 25 25 27 25 24 26 27 23 25 23 20
2 0 1 2 6 7 7 6 6 9 11 12 14 16 20 22 22 23 28 29 27 26 31 29 28 27 28 26 27 27 27 26
5 5 7 8 7 6 6 8 9 9 13 16 16 16 15 16 17 21 21 25 25 23 27 32 32 30 29 30 26 29 31 31
7 7 4 3 3 5 7 8 9 12 14 16 17 17 17 17 15 13 15 17 21 24 28 30 32 31 31 34 33 36 37 37
8 5 2 5 10 13 14 15 17 19 20 20 20 21 21 21 22 23 23 22 21 21 21 23 27 29 30 31 32 35 39 41
2 3 7 12 14 14 14 18 20 23 24 24 23 22 21 22 22 23 24 26 27 27 26 27 28 27 24 22 10 18 22 22
2 7 12 14 15 19 23 23 22 23 22 20 20 20 20 21 21 22 24 25 25 25 25 24 23 26 29 29 30 30 20 22
6 9 14 15 18 25 27 22 22 21 20 20 18 16 17 19 20 21 22 22 22 22 22 25 27 27 28 30 30 30 31 29
7 11 15 16 20 28 28 23 21 20 20 19 16 16 19 21 21 21 20 20 20 20 21 20 21 23 28 33 31 23 17 25
7 11 15 18 23 29 28 21 19 18 17 14 15 18 21 24 23 23 23 22 21 21 20 20 20 21 22 23 26 32 34 28
8 11 16 20 26 30 27 20 18 15 14 15 17 23 24 26 27 25 25 24 22 19 19 20 19 20 21 22 23 24 27 19
Wind_Direction
99 81 83 73 64 61 54 47 35 22 12 2 352 354 7 15 29 24 16 359 299 217 189 175 177 182 185 209 213 203 205 188
95 65 58 65 65 63 55 56 56 44 39 27 8 359 5 15 38 47 38 23 7 291 206 190 188 191 196 192 169 171 172 201
93 56 38 40 51 57 35 26 29 39 34 26 6 348 346 354 16 33 51 37 23 293 214 205 200 200 205 207 189 197 218 242
53 28 3 355 348 341 351 343 329 330 348 359 358 346 336 326 315 313 46 28 21 164 186 183 202 212 218 223 227 226 234 250
357 336 340 324 320 319 322 318 320 308 311 310 326 329 326 321 309 293 293 319 319 283 245 229 227 217 222 229 239 241 250 264
341 337 349 334 319 313 314 308 312 306 297 293 295 311 307 324 305 287 283 273 267 263 265 265 261 241 249 250 263 268 269 267
163 344 1 358 346 317 311 298 299 304 299 287 293 294 295 298 316 316 313 286 270 257 257 259 272 273 278 268 279 274 267 262
161 14 55 40 45 44 36 2 310 297 296 292 285 291 292 287 288 292 296 291 286 272 260 261 258 261 276 277 274 274 269 263
148 68 54 34 30 34 27 27 10 343 311 295 285 284 285 285 281 278 279 283 279 279 271 267 263 257 260 261 254 264 274 280
107 37 46 29 341 325 329 321 314 307 289 282 284 282 280 283 283 280 277 270 269 268 267 266 266 262 265 273 257 256 257 262
38 203 215 267 292 293 301 310 289 278 281 286 290 286 280 277 283 278 277 279 268 272 268 266 264 263 265 263 263 254 251 256
205 231 239 235 245 265 273 281 278 270 279 285 286 285 282 281 279 272 271 270 269 265 265 269 265 260 263 259 262 259 258 257
228 229 195 224 261 289 297 306 294 293 291 290 288 285 284 281 279 278 280 278 274 267 262 259 259 255 266 261 256 266 265 260
179 193 254 321 328 331 328 321 316 313 306 300 295 292 286 280 278 277 275 271 269 271 273 270 264 256 259 262 259 261 261 261
162 339 340 342 338 334 325 321 320 318 312 310 307 303 297 292 289 285 281 276 274 273 271 269 268 262 257 255 253 249 269 270
348 346 348 346 345 340 331 327 328 330 327 323 318 317 317 312 306 298 289 284 278 273 267 264 261 261 254 248 247 251 258 261
353 349 346 347 345 343 338 328 328 329 327 323 323 328 331 328 322 315 310 304 296 286 274 266 261 260 254 250 246 244 244 246
354 351 349 349 345 346 341 332 328 325 323 325 329 335 338 337 329 324 315 306 299 296 291 285 274 268 263 258 253 258 258 253
357 349 348 348 347 348 346 337 332 326 327 332 336 335 338 344 337 324 320 314 307 292 289 289 287 278 270 265 264 266 262 250
351 345 349 348 348 350 354 350 346 342 338 338 335 339 332 337 333 330 319 314 308 299 288 288 291 286 278 269 262 255 254 266